map of TSR home
TSR - Airport
Location
City:  Timisoara, Timisdepartment, Romania
Name:Traian Vuia International Airport
Old (Alt.):Giarmata Airport
ICAO:LRTR
IATA:TSR

Details
Type:Airport (Aerodrome, Airfield)
Use:Public/Civil, Military, International (customs port of entry)
Latitude:4548'35"N (45.809861)
Longitude:2120'16"E (21.337861)
Datum:WGS 1984
Elevation:348 ft (106 m)
Variation:5.07E (WMM2015 magnetic declination)
0.11 annual change
Runways:1
Longest:11483 × 148 ft (3500 × 45 m), paved

Time
Time Zone:UTC+2 (DST+3)
Local Time:

Weather
METAR:LRTR 231800Z 28003KT CAVOK 11/05 Q1016 NOSIG
TAF:LRTR 231700Z 2318/2418 27005KT CAVOK
BECMG 2400/2402 28015KT
TEMPO 2402/2409 28016G26KT 5000 -RA
TEMPO 2409/2415 30025G35KT
BECMG 2416/2418 33016KT

Related Locations
Nearby:
Farthest:CHT: 11556 mi / 18598 km
Waitangi [Tuuta], CIT, NZ

Find:

   beyond  
but within

Other Information
Maps:
NOTAMs:
Links:
Sources:

  
  • flag of Romania
  

Sectional Chart

Flight Planning
at skyvector.com

Satellite Image

Google Maps Satellite view

 

Copyright © 2004-2018 Karl L. Swartz. All rights reserved.
The Great Circle Mapper name and logo are trademarks of the Great Circle Mapper.
All other trademarks mentioned herein belong to their respective owners.
Please see credits for attibutions and further copyright information.

  Follow gcmap on Facebook Follow gcmap on Twitter Follow gcmap on Google+ GCmap on LinkedIn

hCard Microformat

Geo Microformat